SCP
-0 -0 -0 -0 -0 -0 -0 -0 0 0 0 0 0 0 0 0 0 -0 0 0 0 0 0 0 0 0 0 0 0 0 0 0 0 0 0 0 0 0 0 0 0 0 0 0 0
-0 -0 -0 -0 -0 -0 -0 0 0 0 0 0 0 0 0 0 0 -0 0 0 -0 -0 0 0 0 0 0 0 0 0 0 0 0 0 0 0 0 0 0 0 0 0 0 0 -0
-0 -0 0 -0 0 0 0 0 0 0 0 0 -0 0 0 0 0 0 0 0 -0 0 0 0 0 0 0 0 0 0 0 0 0 0 0 0 0 0 0 0 0 0 0 0 -0
-0 -0 0 0 -0 0 0 0 0 0 0 0 -0 0 0 0 0 0 -0 -0 0 0 0 0 0 0 0 0 0 0 0 0 0 0 0 0 0 0 0 0 0 0 0 0 0
-0 0 0 0 -0 0 0 0 0 0 0 0 0 0 0 0 0 0 0 0 0 0 0 0 0 0 0 0 0 0 0 0 0 0 0 0 0 0 0 -0 -0 0 0 -0 0
-0 0 0 -0 -0 0 0 0 0 0 0 0 0 0 -0 0 0 0 0 0 0 0 0 0 0 0 0 0 0 0 0 0 0 0 0 0 0 0 0 0 0 0 0 0 0
-0 0 0 -0 -0 0 0 0 0 0 0 0 0 0 0 -0 0 0 0 0 0 0 0 0 0 0 0 0 0 0 0 0 0 0 0 0 0 0 -0 0 0 0 0 0 0
-0 0 -0 -0 -0 0 0 0 0 0 0 0 0 0 0 0 0 0 0 0 0 0 0 0 0 0 0 0 0 0 0 0 0 0 0 0 0 0 0 0 0 0 0 0 0
-0 0 0 -0 0 0 0 0 0 0 0 -0 0 0 -0 0 0 0 0 0 0 0 0 0 0 0 0 0 0 0 0 0 0 0 0 0 0 0 0 0 0 0 0 0 0
-0 0 0 0 -0 0 0 0 0 0 0 0 0 0 0 0 0 0 0 0 0 0 0 0 0 0 0 0 0 0 0 0 0 0 0 0 0 0 0 0 0 0 0 0 0
-0 0 -0 -0 -0 0 0 0 0 0 0 0 0 0 0 0 0 0 0 0 0 0 0 0 0 0 0 0 0 0 0 0 0 0 0 0 0 0 0 0 0 0 0 0 0
-0 0 0 -0 -0 0 0 0 0 0 0 -0 0 0 0 0 0 0 0 0 0 0 0 0 0 0 0 0 0 0 0 0 0 0 0 0 0 0 0 0 0 0 0 0 0
0 0 0 0 0 0 0 0 0 0 0 0 0 0 0 0 0 0 0 0 0 0 0 0 0 0 0 0 0 0 0 0 0 0 0 0 0 0 0 0 0 0 0 -0 -0
0 0 0 0 0 0 0 0 0 0 0 0 0 0 0 0 0 0 0 0 0 0 0 0 0 0 0 0 0 0 0 0 0 0 0 0 0 0 0 0 0 0 -0 -0 -0
0 0 -0 0 0 0 0 0 0 0 0 0 0 0 0 0 0 0 0 0 0 0 0 0 0 0 0 0 0 0 0 0 0 0 0 0 0 0 0 0 0 -0 -0 -0 -0
-0 0 0 0 0 0 0 0 0 0 0 0 0 0 0 0 0 0 0 0 0 0 0 0 0 0 0 0 0 0 0 0 0 0 0 0 0 0 0 0 0 0 -0 0 0
0 0 -0 0 0 0 0 0 0 0 0 0 0 0 0 0 0 0 0 0 -0 0 0 0 0 0 0 0 0 0 0 0 0 0 0 0 0 0 0 0 0 0 -0 -0 -0
0 0 0 0 0 0 0 0 0 0 0 0 0 0 0 0 0 0 0 0 0 0 0 0 0 0 0 0 0 0 0 0 0 0 0 0 0 0 0 0 0 0 -0 -0 -0
0 0 0 0 0 0 0 0 0 0 0 0 0 0 0 0 0 0 0 0 0 0 0 0 0 0 0 0 0 0 0 0 0 0 0 0 0 0 0 0 0 0 0 0 0
0 0 0 0 0 0 0 0 0 0 0 0 0 0 0 0 0 0 0 0 0 0 0 0 0 0 0 0 0 0 0 0 0 0 0 0 0 0 0 0 0 0 0 0 0
0 0 0 0 0 0 0 0 0 0 0 0 0 0 0 0 0 0 0 0 0 0 0 0 0 0 0 0 0 0 0 0 0 0 0 0 0 0 0 0 0 0 0 0 0
0 0 0 0 0 0 0 0 0 0 0 0 0 0 0 0 0 0 0 0 0 0 0 0 0 0 0 0 0 0 0 0 0 0 0 0 0 0 0 0 0 0 0 0 0
0 0 0 0 0 0 0 0 0 0 0 0 0 0 0 0 0 0 0 0 0 0 0 0 0 0 0 0 0 0 0 0 0 0 0 0 0 0 0 0 0 0 0 0 0
0 0 0 0 0 0 0 0 0 0 0 0 0 0 0 0 0 0 0 0 0 0 0 0 0 0 0 0 0 0 0 0 0 0 0 0 0 0 0 0 0 0 0 0 0
0 0 0 0 0 0 0 0 0 0 0 0 0 0 0 0 0 0 0 0 0 0 0 0 0 0 0 0 0 0 0 0 0 0 0 0 0 0 0 0 0 0 0 0 0
0 0 0 0 0 0 0 0 0 0 0 0 0 0 0 0 0 0 0 0 0 0 0 0 0 0 0 0 0 0 0 0 0 0 0 0 0 0 0 0 0 0 0 0 0
0 0 0 0 0 0 0 0 0 0 0 0 0 0 0 0 0 0 0 0 0 0 0 0 0 0 0 0 0 0 0 0 0 0 0 0 0 0 0 0 0 0 0 0 0
Wind_Speed_500mb
30 32 32 32 29 26 23 21 22 22 16 14 16 19 14 9 14 66 73 53 48 49 48 43 25 12 11 12 10 7 1 5 2 8 9 19 15 8 20 17 18 23 30 34 60
30 31 32 30 26 22 19 18 23 26 23 21 20 32 19 9 9 78 59 52 46 47 49 51 37 19 14 11 12 10 1 6 6 2 5 17 10 17 13 21 22 21 30 50 68
30 29 30 27 23 20 16 16 20 24 24 17 13 18 34 12 11 62 62 53 46 42 40 38 20 16 17 16 18 9 5 4 3 11 15 11 12 6 7 14 20 39 56 59 53
30 30 29 26 21 15 13 16 20 21 22 22 14 13 26 16 11 60 60 49 43 35 33 29 34 11 10 8 9 8 6 2 13 15 14 7 16 12 25 26 59 60 40 54 51
31 30 29 27 21 16 13 14 16 16 23 33 40 28 17 45 34 58 57 43 43 32 37 29 40 13 8 4 5 6 5 16 20 18 24 21 19 21 24 46 32 22 37 58 50
31 31 28 28 22 16 13 14 10 10 7 4 9 27 44 32 49 63 52 38 41 27 28 34 19 15 12 4 4 10 11 19 12 17 19 11 15 12 20 22 24 37 59 55 59
31 32 29 29 23 14 12 14 12 14 12 12 11 6 54 34 55 68 51 39 34 20 20 21 30 33 4 2 13 7 9 11 5 15 8 23 14 13 26 25 51 55 55 51 43
31 33 29 26 23 12 11 11 14 19 19 12 9 16 19 26 44 72 54 39 27 22 18 16 10 15 22 11 9 8 6 11 8 14 7 8 17 15 38 44 53 47 32 21 21
30 32 29 25 24 12 8 11 16 27 27 34 18 9 13 28 49 78 49 42 23 20 17 11 9 15 22 7 6 13 12 17 19 8 10 6 35 37 53 30 18 22 25 25 33
30 32 31 24 25 13 10 12 10 7 9 9 42 9 33 35 35 73 42 35 28 12 7 16 13 6 7 13 4 16 12 11 27 10 11 28 38 42 12 15 14 21 30 36 37
30 33 31 22 27 11 16 17 3 9 56 35 29 11 21 24 19 78 57 14 29 22 10 13 16 10 11 2 6 9 8 24 29 20 36 23 40 30 10 3 13 22 30 37 45
30 34 32 19 28 14 5 6 8 21 26 20 23 33 26 18 27 77 62 21 22 10 16 7 7 10 11 4 14 20 25 15 23 13 34 21 39 17 8 5 2 16 29 41 57
28 33 32 15 27 19 7 11 24 21 11 11 23 27 36 13 20 55 65 13 12 10 10 8 5 19 8 7 35 23 8 11 26 46 6 19 9 3 3 7 10 22 31 38 55
27 33 32 19 14 21 9 17 21 8 8 18 19 19 37 3 11 46 66 13 15 10 7 4 11 14 10 14 25 14 6 38 36 17 7 12 10 7 3 12 7 26 38 54 77
25 32 33 28 21 18 5 16 13 0 9 11 10 13 17 21 21 46 58 15 4 9 8 7 12 10 9 21 21 14 44 33 17 3 7 6 5 12 4 11 12 32 48 61 84
21 31 35 28 31 24 9 13 11 10 8 9 12 18 11 19 12 29 32 25 5 5 3 6 8 2 7 26 10 28 20 2 5 5 5 7 7 11 6 5 10 26 49 82 95
20 23 35 33 29 23 8 11 8 13 3 14 10 12 5 12 10 18 10 19 13 14 15 14 6 5 13 8 8 22 14 10 13 9 7 10 9 20 8 7 12 33 70 90 94
19 13 36 32 32 23 5 6 19 2 4 2 8 7 8 16 5 17 8 11 12 9 4 11 13 8 18 7 8 9 8 6 9 9 17 23 12 11 8 11 21 57 78 90 95
15 7 35 31 29 22 4 13 4 5 4 12 9 9 6 5 6 13 9 2 6 3 5 10 11 6 1 5 8 10 9 2 5 4 4 10 14 18 8 15 36 67 88 99 105
11 4 32 29 23 16 11 8 4 0 2 3 5 7 7 12 14 13 6 7 6 2 4 5 12 6 6 4 8 8 2 6 6 14 14 13 13 15 12 17 44 61 84 103 104
6 2 28 24 15 15 8 5 5 4 1 2 3 2 5 6 2 4 6 8 3 5 3 7 5 12 8 2 8 3 6 5 1 4 6 12 15 10 9 28 60 65 98 106 105
3 3 22 17 13 13 6 5 5 5 3 3 6 6 7 1 4 4 6 12 4 7 4 6 5 8 12 7 8 7 11 8 1 9 11 15 18 8 5 57 70 88 106 108 100
3 4 14 9 7 4 4 4 2 3 2 3 3 4 6 3 5 6 6 7 6 10 7 6 2 12 15 6 5 4 6 7 7 6 11 8 19 31 53 58 83 95 104 107 104
3 4 12 18 16 16 9 6 6 3 4 3 3 3 2 2 8 7 5 6 18 4 5 2 5 14 15 28 3 23 16 10 7 5 7 27 60 59 52 59 87 103 110 109 105
6 6 5 2 7 13 7 5 8 7 3 4 2 6 9 2 5 8 7 10 6 6 6 6 8 11 28 34 21 16 18 8 9 15 9 45 55 57 49 64 90 103 110 102 100
2 7 11 10 11 8 1 8 11 5 10 6 7 8 11 10 13 10 5 5 10 5 7 3 7 7 17 3 9 6 6 12 13 16 23 31 53 25 86 89 90 100 97 94 114
4 8 7 5 6 6 6 10 12 13 11 7 12 6 10 23 34 40 39 33 27 4 5 2 6 9 11 15 6 6 12 10 16 12 16 15 29 60 60 69 93 106 92 110 114
Wind_Direction_500mb
37 38 36 34 37 38 40 45 47 47 51 90 65 27 5 350 353 15 33 8 357 355 3 9 17 20 85 83 76 115 161 254 17 13 335 335 351 294 319 277 294 293 272 298 313
35 37 35 32 36 40 41 48 53 56 76 90 67 31 13 350 350 22 14 359 355 357 6 11 20 55 65 43 29 55 144 48 67 114 292 295 287 304 315 302 296 280 266 294 312
33 36 36 34 34 39 45 53 60 64 70 69 46 33 26 25 41 5 1 360 2 4 12 18 21 62 61 42 16 20 88 304 318 301 298 259 292 282 285 291 279 296 304 320 327
33 36 35 35 38 46 49 57 67 62 66 53 41 24 31 44 58 3 360 358 4 8 16 30 39 55 67 48 19 92 35 86 284 301 311 268 312 270 259 269 298 296 310 329 324
33 34 35 35 38 43 54 64 68 69 97 78 59 41 46 58 29 4 0 0 4 13 30 34 40 53 71 54 52 56 335 300 301 305 292 272 278 267 258 290 292 288 317 326 316
35 34 36 35 38 41 55 47 40 53 84 346 348 42 53 71 22 5 4 3 5 30 49 50 40 68 81 61 70 315 290 288 298 296 287 289 279 309 269 311 297 293 312 319 320
33 31 33 33 34 47 47 42 51 57 50 56 45 19 48 57 19 6 14 15 3 45 71 81 61 62 41 25 342 329 343 324 243 302 294 329 275 233 296 306 312 304 308 305 313
31 27 28 32 29 46 45 59 70 69 58 51 32 43 82 27 13 8 10 23 16 66 84 76 37 42 35 320 30 24 35 341 299 310 294 23 280 268 302 315 307 307 313 316 342
30 25 25 31 26 42 51 102 102 112 57 47 40 88 49 360 4 10 9 21 44 70 85 74 56 58 15 42 40 27 287 296 310 262 288 352 296 289 320 330 16 50 29 11 360
29 24 24 28 25 47 80 125 123 263 322 19 33 52 18 352 358 5 19 29 44 102 70 42 53 64 27 35 18 315 314 281 295 296 333 291 278 291 353 71 53 30 13 0 348
27 23 22 31 30 62 122 129 117 62 66 72 58 81 8 5 359 11 15 27 31 41 20 18 54 21 319 330 200 254 249 280 282 283 327 306 292 301 237 58 26 7 1 350 341
23 20 19 34 36 34 188 235 152 134 90 69 48 35 16 10 7 12 15 43 31 21 337 29 68 313 288 237 336 318 300 291 287 298 318 324 295 307 171 189 248 353 350 345 340
18 17 20 29 36 27 54 141 139 127 82 45 34 21 16 22 37 7 13 17 37 28 9 87 8 323 347 332 346 330 240 292 294 324 284 313 293 350 215 229 268 338 341 340 341
20 15 25 27 18 17 71 140 145 131 88 340 356 16 6 96 51 13 12 22 26 8 2 42 349 351 338 352 354 308 279 303 304 326 293 8 296 305 288 284 277 327 341 341 339
16 15 21 30 18 21 63 170 180 237 43 349 359 3 14 60 346 7 13 39 22 340 45 293 356 350 1 339 336 275 303 305 291 208 10 347 38 278 327 313 333 342 335 334 334
8 14 19 15 14 25 85 149 155 46 312 349 3 359 16 33 18 353 20 28 1 354 58 256 307 271 319 309 325 323 307 352 78 102 360 239 58 279 275 247 299 312 329 335 332
357 11 14 14 14 19 91 145 37 82 28 341 337 2 32 337 351 12 15 24 43 9 15 332 334 346 348 330 328 360 352 349 356 5 256 210 4 249 263 230 281 325 336 332 329
353 7 12 13 10 14 57 58 62 143 337 11 348 321 43 358 32 351 20 24 32 59 12 24 336 16 350 136 244 347 83 111 304 308 303 308 226 260 191 221 300 335 329 328 328
353 358 9 7 3 6 38 49 182 226 257 341 313 18 354 11 6 11 47 273 246 44 81 6 272 320 321 71 109 323 35 212 265 265 310 268 287 300 206 291 331 327 328 330 327
354 338 3 2 5 12 69 118 176 143 100 45 81 50 323 330 7 33 12 240 298 233 215 241 296 246 308 65 58 102 278 11 7 330 314 289 285 261 306 312 329 328 327 324 319
357 44 360 359 8 44 88 176 150 161 155 68 169 316 222 301 347 322 268 274 220 8 107 145 146 293 349 55 188 7 19 28 219 261 290 308 282 219 261 333 330 323 321 318 314
10 45 3 6 27 53 80 134 142 161 125 98 98 133 189 249 303 297 258 214 177 329 318 217 166 283 260 295 162 136 179 139 90 289 257 271 270 295 313 328 322 318 316 313 312
60 36 10 29 90 75 129 79 109 137 151 136 159 199 181 217 345 225 257 265 250 327 192 206 338 319 348 3 42 171 249 188 213 230 234 270 274 312 318 319 320 316 315 313 314
47 34 32 57 85 126 140 167 158 124 131 152 164 154 110 285 210 283 281 284 314 294 283 181 153 175 227 257 175 298 284 234 220 236 260 273 294 308 317 322 320 319 316 315 315
46 90 78 359 33 107 108 150 146 195 161 180 223 213 152 317 277 236 244 303 304 356 30 93 250 212 250 262 280 257 265 167 177 236 251 305 297 299 315 319 315 314 312 315 318
20 149 104 93 119 106 242 221 176 188 148 221 203 176 167 192 198 254 221 217 258 328 5 54 270 344 287 136 136 267 183 202 233 254 260 286 284 287 313 315 316 317 316 317 323
105 138 137 124 125 107 214 184 206 164 209 210 195 151 221 245 260 267 270 259 255 322 313 20 323 342 271 317 63 14 219 227 253 243 257 287 299 316 319 322 320 316 316 323 322
Wind_Speed_850mb
30 32 32 32 29 26 23 21 22 22 16 14 16 19 14 9 14 66 73 53 48 49 48 43 25 12 11 12 10 7 1 5 2 8 9 19 15 8 20 17 18 23 30 34 60
30 31 32 30 26 22 19 18 23 26 23 21 20 32 19 9 9 78 59 52 46 47 49 51 37 19 14 11 12 10 1 6 6 2 5 17 10 17 13 21 22 21 30 50 68
30 29 30 27 23 20 16 16 20 24 24 17 13 18 34 12 11 62 62 53 46 42 40 38 20 16 17 16 18 9 5 4 3 11 15 11 12 6 7 14 20 39 56 59 53
30 30 29 26 21 15 13 16 20 21 22 22 14 13 26 16 11 60 60 49 43 35 33 29 34 11 10 8 9 8 6 2 13 15 14 7 16 12 25 26 59 60 40 54 51
31 30 29 27 21 16 13 14 16 16 23 33 40 28 17 45 34 58 57 43 43 32 37 29 40 13 8 4 5 6 5 16 20 18 24 21 19 21 24 46 32 22 37 58 50
31 31 28 28 22 16 13 14 10 10 7 4 9 27 44 32 49 63 52 38 41 27 28 34 19 15 12 4 4 10 11 19 12 17 19 11 15 12 20 22 24 37 59 55 59
31 32 29 29 23 14 12 14 12 14 12 12 11 6 54 34 55 68 51 39 34 20 20 21 30 33 4 2 13 7 9 11 5 15 8 23 14 13 26 25 51 55 55 51 43
31 33 29 26 23 12 11 11 14 19 19 12 9 16 19 26 44 72 54 39 27 22 18 16 10 15 22 11 9 8 6 11 8 14 7 8 17 15 38 44 53 47 32 21 21
30 32 29 25 24 12 8 11 16 27 27 34 18 9 13 28 49 78 49 42 23 20 17 11 9 15 22 7 6 13 12 17 19 8 10 6 35 37 53 30 18 22 25 25 33
30 32 31 24 25 13 10 12 10 7 9 9 42 9 33 35 35 73 42 35 28 12 7 16 13 6 7 13 4 16 12 11 27 10 11 28 38 42 12 15 14 21 30 36 37
30 33 31 22 27 11 16 17 3 9 56 35 29 11 21 24 19 78 57 14 29 22 10 13 16 10 11 2 6 9 8 24 29 20 36 23 40 30 10 3 13 22 30 37 45
30 34 32 19 28 14 5 6 8 21 26 20 23 33 26 18 27 77 62 21 22 10 16 7 7 10 11 4 14 20 25 15 23 13 34 21 39 17 8 5 2 16 29 41 57
28 33 32 15 27 19 7 11 24 21 11 11 23 27 36 13 20 55 65 13 12 10 10 8 5 19 8 7 35 23 8 11 26 46 6 19 9 3 3 7 10 22 31 38 55
27 33 32 19 14 21 9 17 21 8 8 18 19 19 37 3 11 46 66 13 15 10 7 4 11 14 10 14 25 14 6 38 36 17 7 12 10 7 3 12 7 26 38 54 77
25 32 33 28 21 18 5 16 13 0 9 11 10 13 17 21 21 46 58 15 4 9 8 7 12 10 9 21 21 14 44 33 17 3 7 6 5 12 4 11 12 32 48 61 84
21 31 35 28 31 24 9 13 11 10 8 9 12 18 11 19 12 29 32 25 5 5 3 6 8 2 7 26 10 28 20 2 5 5 5 7 7 11 6 5 10 26 49 82 95
20 23 35 33 29 23 8 11 8 13 3 14 10 12 5 12 10 18 10 19 13 14 15 14 6 5 13 8 8 22 14 10 13 9 7 10 9 20 8 7 12 33 70 90 94
19 13 36 32 32 23 5 6 19 2 4 2 8 7 8 16 5 17 8 11 12 9 4 11 13 8 18 7 8 9 8 6 9 9 17 23 12 11 8 11 21 57 78 90 95
15 7 35 31 29 22 4 13 4 5 4 12 9 9 6 5 6 13 9 2 6 3 5 10 11 6 1 5 8 10 9 2 5 4 4 10 14 18 8 15 36 67 88 99 105
11 4 32 29 23 16 11 8 4 0 2 3 5 7 7 12 14 13 6 7 6 2 4 5 12 6 6 4 8 8 2 6 6 14 14 13 13 15 12 17 44 61 84 103 104
6 2 28 24 15 15 8 5 5 4 1 2 3 2 5 6 2 4 6 8 3 5 3 7 5 12 8 2 8 3 6 5 1 4 6 12 15 10 9 28 60 65 98 106 105
3 3 22 17 13 13 6 5 5 5 3 3 6 6 7 1 4 4 6 12 4 7 4 6 5 8 12 7 8 7 11 8 1 9 11 15 18 8 5 57 70 88 106 108 100
3 4 14 9 7 4 4 4 2 3 2 3 3 4 6 3 5 6 6 7 6 10 7 6 2 12 15 6 5 4 6 7 7 6 11 8 19 31 53 58 83 95 104 107 104
3 4 12 18 16 16 9 6 6 3 4 3 3 3 2 2 8 7 5 6 18 4 5 2 5 14 15 28 3 23 16 10 7 5 7 27 60 59 52 59 87 103 110 109 105
6 6 5 2 7 13 7 5 8 7 3 4 2 6 9 2 5 8 7 10 6 6 6 6 8 11 28 34 21 16 18 8 9 15 9 45 55 57 49 64 90 103 110 102 100
2 7 11 10 11 8 1 8 11 5 10 6 7 8 11 10 13 10 5 5 10 5 7 3 7 7 17 3 9 6 6 12 13 16 23 31 53 25 86 89 90 100 97 94 114
4 8 7 5 6 6 6 10 12 13 11 7 12 6 10 23 34 40 39 33 27 4 5 2 6 9 11 15 6 6 12 10 16 12 16 15 29 60 60 69 93 106 92 110 114
Wind_Direction_850mb
37 38 36 34 37 38 40 45 47 47 51 90 65 27 5 350 353 15 33 8 357 355 3 9 17 20 85 83 76 115 161 254 17 13 335 335 351 294 319 277 294 293 272 298 313
35 37 35 32 36 40 41 48 53 56 76 90 67 31 13 350 350 22 14 359 355 357 6 11 20 55 65 43 29 55 144 48 67 114 292 295 287 304 315 302 296 280 266 294 312
33 36 36 34 34 39 45 53 60 64 70 69 46 33 26 25 41 5 1 360 2 4 12 18 21 62 61 42 16 20 88 304 318 301 298 259 292 282 285 291 279 296 304 320 327
33 36 35 35 38 46 49 57 67 62 66 53 41 24 31 44 58 3 360 358 4 8 16 30 39 55 67 48 19 92 35 86 284 301 311 268 312 270 259 269 298 296 310 329 324
33 34 35 35 38 43 54 64 68 69 97 78 59 41 46 58 29 4 0 0 4 13 30 34 40 53 71 54 52 56 335 300 301 305 292 272 278 267 258 290 292 288 317 326 316
35 34 36 35 38 41 55 47 40 53 84 346 348 42 53 71 22 5 4 3 5 30 49 50 40 68 81 61 70 315 290 288 298 296 287 289 279 309 269 311 297 293 312 319 320
33 31 33 33 34 47 47 42 51 57 50 56 45 19 48 57 19 6 14 15 3 45 71 81 61 62 41 25 342 329 343 324 243 302 294 329 275 233 296 306 312 304 308 305 313
31 27 28 32 29 46 45 59 70 69 58 51 32 43 82 27 13 8 10 23 16 66 84 76 37 42 35 320 30 24 35 341 299 310 294 23 280 268 302 315 307 307 313 316 342
30 25 25 31 26 42 51 102 102 112 57 47 40 88 49 360 4 10 9 21 44 70 85 74 56 58 15 42 40 27 287 296 310 262 288 352 296 289 320 330 16 50 29 11 360
29 24 24 28 25 47 80 125 123 263 322 19 33 52 18 352 358 5 19 29 44 102 70 42 53 64 27 35 18 315 314 281 295 296 333 291 278 291 353 71 53 30 13 0 348
27 23 22 31 30 62 122 129 117 62 66 72 58 81 8 5 359 11 15 27 31 41 20 18 54 21 319 330 200 254 249 280 282 283 327 306 292 301 237 58 26 7 1 350 341
23 20 19 34 36 34 188 235 152 134 90 69 48 35 16 10 7 12 15 43 31 21 337 29 68 313 288 237 336 318 300 291 287 298 318 324 295 307 171 189 248 353 350 345 340
18 17 20 29 36 27 54 141 139 127 82 45 34 21 16 22 37 7 13 17 37 28 9 87 8 323 347 332 346 330 240 292 294 324 284 313 293 350 215 229 268 338 341 340 341
20 15 25 27 18 17 71 140 145 131 88 340 356 16 6 96 51 13 12 22 26 8 2 42 349 351 338 352 354 308 279 303 304 326 293 8 296 305 288 284 277 327 341 341 339
16 15 21 30 18 21 63 170 180 237 43 349 359 3 14 60 346 7 13 39 22 340 45 293 356 350 1 339 336 275 303 305 291 208 10 347 38 278 327 313 333 342 335 334 334
8 14 19 15 14 25 85 149 155 46 312 349 3 359 16 33 18 353 20 28 1 354 58 256 307 271 319 309 325 323 307 352 78 102 360 239 58 279 275 247 299 312 329 335 332
357 11 14 14 14 19 91 145 37 82 28 341 337 2 32 337 351 12 15 24 43 9 15 332 334 346 348 330 328 360 352 349 356 5 256 210 4 249 263 230 281 325 336 332 329
353 7 12 13 10 14 57 58 62 143 337 11 348 321 43 358 32 351 20 24 32 59 12 24 336 16 350 136 244 347 83 111 304 308 303 308 226 260 191 221 300 335 329 328 328
353 358 9 7 3 6 38 49 182 226 257 341 313 18 354 11 6 11 47 273 246 44 81 6 272 320 321 71 109 323 35 212 265 265 310 268 287 300 206 291 331 327 328 330 327
354 338 3 2 5 12 69 118 176 143 100 45 81 50 323 330 7 33 12 240 298 233 215 241 296 246 308 65 58 102 278 11 7 330 314 289 285 261 306 312 329 328 327 324 319
357 44 360 359 8 44 88 176 150 161 155 68 169 316 222 301 347 322 268 274 220 8 107 145 146 293 349 55 188 7 19 28 219 261 290 308 282 219 261 333 330 323 321 318 314
10 45 3 6 27 53 80 134 142 161 125 98 98 133 189 249 303 297 258 214 177 329 318 217 166 283 260 295 162 136 179 139 90 289 257 271 270 295 313 328 322 318 316 313 312
60 36 10 29 90 75 129 79 109 137 151 136 159 199 181 217 345 225 257 265 250 327 192 206 338 319 348 3 42 171 249 188 213 230 234 270 274 312 318 319 320 316 315 313 314
47 34 32 57 85 126 140 167 158 124 131 152 164 154 110 285 210 283 281 284 314 294 283 181 153 175 227 257 175 298 284 234 220 236 260 273 294 308 317 322 320 319 316 315 315
46 90 78 359 33 107 108 150 146 195 161 180 223 213 152 317 277 236 244 303 304 356 30 93 250 212 250 262 280 257 265 167 177 236 251 305 297 299 315 319 315 314 312 315 318
20 149 104 93 119 106 242 221 176 188 148 221 203 176 167 192 198 254 221 217 258 328 5 54 270 344 287 136 136 267 183 202 233 254 260 286 284 287 313 315 316 317 316 317 323
105 138 137 124 125 107 214 184 206 164 209 210 195 151 221 245 260 267 270 259 255 322 313 20 323 342 271 317 63 14 219 227 253 243 257 287 299 316 319 322 320 316 316 323 322